SCP
0 0 0 0 0 0 0 0 0 0 0 0 -0 -0 0 0 -0 0 0 0 0 0 0 0 0 0 0 0 0 0 0 0 0 0 0 0 0 0 0 0 0 0 0 0
0 0 0 0 0 0 0 -0 -0 -0 -0 0 0 -0 0 0 0 0 0 0 0 0 0 0 0 0 0 0 0 0 0 0 0 0 0 0 0 0 0 0 0 0 0 0
0 0 0 0 0 0 0 0 -0 0 0 0 0 -0 0 0 0 -0 0 0 0 0 0 0 0 0 0 0 0 0 0 0 0 0 0 0 0 0 0 0 0 0 0 0
0 0 0 0 0 0 0 0 0 0 0 0 0 0 0 0 0 0 0 0 0 0 0 0 0 0 0 0 0 0 0 0 0 0 0 0 0 0 0 0 0 0 0 0
0 0 0 0 0 0 0 0 -0 0 0 0 0 0 0 0 0 0 0 0 0 0 0 0 0 0 0 0 0 0 0 0 0 0 0 0 0 0 0 0 0 0 0 0
0 0 0 0 0 0 -0 0 0 -0 0 0 0 0 0 0 0 0 0 0 0 0 0 0 0 0 0 0 0 0 0 0 0 0 0 0 0 0 0 0 0 0 0 0
-0 0 0 0 0 0 0 0 0 0 -0 0 0 0 0 0 0 0 0 0 0 0 0 0 0 0 0 0 0 0 0 0 0 0 0 0 0 0 0 0 0 0 0 0
0 0 0 0 0 0 0 0 0 -0 0 -0 -0 -0 0 0 0 0 0 0 0 0 0 0 0 0 0 0 0 0 0 0 0 0 0 0 0 0 0 0 0 0 0 0
0 0 0 -0 -0 0 0 0 0 0 0 0 0 -0 -0 0 0 0 0 0 0 0 0 0 0 0 0 0 0 0 0 0 0 0 0 0 0 0 0 0 0 0 0 0
0 0 0 -0 -0 0 0 0 0 0 0 0 0 0 0 0 0 0 0 0 0 0 0 0 0 0 0 0 0 0 0 0 0 0 0 0 0 0 0 0 0 0 0 0
0 0 -0 0 0 0 0 0 0 0 0 0 -0 -0 0 0 0 0 0 0 0 0 0 0 0 0 0 0 0 0 0 0 0 0 0 0 0 0 0 0 0 0 0 0
0 0 0 0 0 -0 0 0 0 0 0 0 0 -0 0 0 0 0 0 0 0 0 0 0 0 0 0 0 0 0 0 0 0 0 0 0 0 0 0 0 0 0 0 0
0 0 -0 -0 0 -0 -0 -0 0 0 0 0 0 -0 -0 0 0 0 0 0 0 0 0 0 0 0 0 0 0 0 0 0 0 0 0 0 0 0 0 0 0 0 0 0
-0 -0 0 0 0 -0 -0 -0 -0 0 0 0 0 0 0 0 0 0 0 0 0 0 0 0 0 0 0 0 0 0 0 0 0 0 0 0 0 0 0 0 0 0 0 0
-0 -0 0 -0 0 -0 -0 0 0 0 0 0 0 0 0 0 0 0 0 0 0 0 0 0 0 0 0 0 0 0 0 0 0 0 0 0 0 0 0 0 0 0 0 0
-0 -0 -0 -0 -0 -0 -0 0 -0 0 0 0 0 0 0 0 0 0 0 0 0 0 0 0 0 0 0 0 0 0 0 0 0 0 0 0 0 0 0 0 0 0 0 0
0 0 -0 -0 -0 -0 -0 -0 0 0 0 0 0 0 0 0 0 0 0 0 0 0 0 0 0 0 0 0 0 0 0 0 0 0 0 0 0 0 0 0 0 0 0 0
-0 -0 -0 -0 -0 -0 0 0 0 0 0 0 0 0 0 0 0 0 0 0 0 0 0 0 0 0 0 0 0 0 0 0 0 0 0 0 0 0 0 0 0 0 0 0
0 0 0 0 0 0 0 0 0 0 0 0 0 0 0 0 0 0 0 0 0 0 0 0 0 0 0 0 0 0 0 0 0 0 0 0 0 0 0 0 0 0 0 0
0 0 0 0 0 0 0 0 0 0 0 0 0 0 0 0 0 0 0 0 0 0 0 0 0 0 0 0 0 0 0 0 0 0 0 0 0 0 0 0 0 0 0 0
0 0 0 0 0 0 0 0 0 0 0 0 0 0 0 0 0 0 0 0 0 0 0 0 0 0 0 0 0 0 0 0 0 0 0 0 0 0 0 0 0 0 0 0
0 0 0 0 0 0 0 0 0 0 0 0 0 0 0 0 0 0 0 0 0 0 0 0 0 0 0 0 0 0 0 0 0 0 0 0 0 0 0 0 0 0 0 0
0 0 0 0 0 0 0 0 0 0 0 0 0 0 0 0 0 0 0 0 0 0 0 0 0 0 0 0 0 0 0 0 0 0 0 0 0 0 0 0 0 0 0 0
0 0 0 0 0 0 0 0 0 0 0 0 0 0 0 0 0 0 0 0 0 0 0 0 0 0 0 0 0 0 0 0 0 0 0 0 0 0 0 0 0 0 0 0
0 0 0 0 0 0 0 0 0 0 0 0 0 0 0 0 0 0 0 0 0 0 0 0 0 0 0 0 0 0 0 0 0 0 0 0 0 0 0 0 0 0 0 0
0 0 0 0 0 0 0 0 0 0 0 0 0 0 0 0 0 0 0 0 0 0 0 0 0 0 0 0 0 0 0 0 0 0 0 0 0 0 0 0 0 0 0 0
0 0 0 0 0 0 0 0 0 0 0 0 0 0 0 0 0 0 0 0 0 0 0 0 0 0 0 0 0 0 0 0 0 0 0 0 0 0 0 0 0 0 0 0
Wind_Speed_500mb
3 4 3 5 12 14 14 17 14 19 28 32 24 11 18 20 26 30 30 32 35 38 43 46 47 45 44 41 37 33 31 27 23 20 18 18 16 17 15 14 13 15 19 22
7 5 3 11 19 16 16 14 28 30 39 30 37 11 23 25 35 27 25 26 30 34 35 42 42 40 39 38 38 35 31 23 19 18 19 21 23 23 24 25 27 24 24 27
6 4 14 6 8 10 7 13 13 15 30 22 8 9 23 29 37 38 22 23 35 41 38 39 40 36 40 40 32 32 29 25 19 13 15 20 23 25 27 29 30 31 34 36
6 5 2 7 15 9 11 12 27 28 13 6 21 32 31 23 35 43 27 29 35 40 40 47 40 37 37 36 31 22 19 17 14 13 10 13 15 16 17 19 23 25 29 31
3 1 13 2 8 13 13 18 34 30 7 19 34 37 30 25 31 40 34 39 36 38 42 42 38 36 36 30 34 28 17 15 16 16 14 12 12 8 6 5 5 5 7 12
3 4 6 5 19 25 13 6 35 37 10 18 24 7 7 19 31 37 36 32 33 35 36 37 38 33 28 36 35 33 29 25 22 22 20 19 19 18 19 17 16 14 12 11
7 6 9 12 31 21 3 13 38 33 41 29 9 17 38 34 38 37 36 31 28 28 29 29 28 29 35 38 42 39 33 30 29 30 28 29 26 25 24 25 23 23 23 24
6 6 8 27 10 10 16 9 19 23 27 53 55 52 44 38 40 35 35 32 31 30 32 30 29 25 32 34 38 33 30 30 30 28 28 28 26 28 27 25 23 26 26 29
7 3 5 10 7 9 14 11 12 19 27 51 56 46 40 41 40 36 33 32 30 32 33 32 30 32 39 39 34 34 33 36 36 33 32 31 32 32 32 31 32 36 36 38
5 9 14 14 13 15 13 24 24 27 25 39 52 43 40 36 34 31 29 30 28 28 31 33 30 31 36 34 33 34 40 42 42 40 39 39 39 39 38 38 37 36 36 37
8 8 6 28 23 15 17 20 26 30 32 32 37 35 34 35 33 30 30 30 29 32 34 35 33 35 35 35 33 36 40 41 40 40 40 39 38 38 35 37 32 31 32 28
4 9 6 14 16 15 25 28 29 30 31 26 28 32 28 33 32 33 34 34 36 39 38 38 36 37 38 36 33 32 34 35 35 34 34 34 33 32 32 31 27 25 24 22
5 12 29 26 24 22 28 27 27 31 29 33 34 30 32 36 34 34 34 33 34 35 34 31 31 31 32 30 25 25 27 28 26 25 24 24 24 23 23 24 20 16 15 14
17 25 16 6 20 24 26 26 26 30 31 31 32 31 32 35 35 34 34 32 29 28 27 26 24 26 27 24 21 20 20 19 17 17 17 16 17 17 17 14 13 14 15 15
25 13 28 28 24 23 21 21 24 27 27 30 28 31 30 33 33 32 29 26 23 22 24 22 20 22 22 20 17 17 16 14 14 12 11 11 11 10 10 10 11 13 14 14
22 26 24 23 21 18 16 17 22 26 26 28 29 30 29 28 29 27 23 20 15 20 21 18 15 17 16 15 14 13 12 11 10 8 8 7 7 7 8 9 10 11 10 10
16 17 20 21 20 20 20 20 24 27 27 27 29 29 27 26 26 24 22 19 18 16 15 12 13 14 13 12 11 10 9 8 6 6 5 6 6 7 8 9 10 10 10 10
13 16 15 18 22 23 24 23 24 26 27 27 28 28 27 24 22 19 16 15 14 11 10 12 12 12 11 9 9 9 8 7 6 5 6 7 6 7 8 8 9 10 11 12
17 20 21 21 20 23 25 26 27 28 30 28 26 25 22 19 16 12 10 8 4 4 7 8 9 10 9 8 7 7 6 5 4 4 4 4 5 6 6 7 8 10 11 13
20 19 20 24 26 25 30 30 30 32 29 23 21 20 17 15 13 10 10 5 4 4 5 7 9 9 10 9 8 7 5 4 3 4 3 4 5 6 7 9 10 12 13 15
24 24 27 31 37 36 33 30 27 28 28 23 16 16 14 13 11 8 6 4 2 3 3 5 6 7 8 8 7 7 5 5 4 5 6 7 8 9 10 11 13 15 17 18
36 37 38 36 35 35 31 26 22 22 21 17 15 14 12 10 10 7 5 3 1 1 2 5 8 9 9 9 8 7 7 7 8 9 10 11 12 12 13 15 17 18 20 21
35 34 33 30 27 28 26 21 18 16 15 15 15 14 13 12 11 11 10 6 6 5 6 8 10 11 11 11 10 9 9 10 11 13 14 15 16 17 17 18 20 21 22 23
33 29 26 24 21 19 16 16 13 13 12 12 12 14 15 17 17 13 10 7 7 8 10 10 11 12 14 14 12 12 11 12 13 15 16 17 17 17 18 19 20 22 23 24
24 23 21 18 15 13 11 9 6 5 4 6 9 12 14 16 14 11 8 6 7 9 11 11 11 12 15 15 13 13 15 16 19 20 21 20 20 21 22 23 24 26 28 28
17 12 8 6 5 4 4 5 6 7 9 10 12 14 17 18 14 11 9 8 9 11 12 13 14 15 17 17 17 18 20 22 25 27 26 23 24 26 28 28 27 28 31 32
7 6 5 4 6 9 10 11 12 14 15 15 16 18 20 17 11 9 7 9 12 16 17 18 19 20 22 24 24 24 25 26 29 30 28 27 30 30 29 28 29 32 35 36
Wind_Direction_500mb
159 105 171 193 248 252 241 239 242 278 275 282 291 255 130 103 62 44 27 29 52 70 95 109 122 131 140 146 147 150 158 167 174 179 179 172 185 197 207 215 222 231 236 239
318 154 194 268 278 283 260 256 257 273 279 283 279 219 139 117 91 62 42 39 54 72 79 94 103 111 124 133 146 162 163 172 185 191 200 200 203 211 215 224 232 243 259 264
268 283 318 253 157 335 286 292 278 299 304 291 333 192 142 124 104 90 54 58 64 66 65 83 95 103 110 114 123 145 152 150 151 179 196 208 209 213 220 226 233 238 244 249
252 312 234 112 325 114 333 298 317 308 319 106 104 81 76 96 111 106 100 74 68 70 69 73 80 90 101 110 118 118 118 118 135 157 176 183 187 193 204 217 230 233 238 244
322 281 307 25 65 16 357 328 13 357 87 135 128 96 56 71 93 92 84 74 69 73 70 74 76 80 90 100 101 111 115 108 111 123 124 125 130 133 146 173 177 206 228 244
138 271 254 60 334 325 293 242 7 346 283 182 189 166 115 88 90 92 88 78 77 69 60 63 68 77 86 84 89 92 90 100 97 98 97 93 91 91 93 93 93 93 85 66
211 258 283 3 324 321 188 345 340 337 319 225 176 91 117 110 94 90 86 80 80 81 79 69 66 72 73 72 73 76 80 85 87 86 86 81 81 85 83 80 80 75 71 63
170 225 268 3 7 35 321 337 3 12 59 95 99 105 108 97 87 85 80 78 78 83 82 78 74 73 78 74 73 78 80 82 82 85 91 96 96 95 92 88 86 85 80 79
234 303 71 40 81 9 22 49 33 73 92 112 114 108 101 91 86 81 79 79 81 83 83 81 78 79 82 80 81 83 87 88 88 93 96 98 100 97 95 95 93 90 85 82
290 72 49 42 57 50 66 89 99 108 107 118 111 111 102 92 85 82 84 86 90 93 89 83 77 78 79 82 85 87 88 88 86 85 87 85 83 83 85 83 82 83 81 78
300 54 70 54 49 56 80 98 109 110 104 100 107 95 96 93 91 90 91 91 94 91 87 85 84 81 81 82 84 86 86 84 83 81 79 80 81 83 81 81 78 77 74 73
326 351 66 58 60 85 91 89 98 110 110 102 97 99 99 100 104 105 100 97 95 91 86 83 83 83 82 78 75 75 79 79 76 74 74 74 73 75 72 68 61 58 59 57
28 79 111 105 95 96 93 94 100 101 102 103 100 106 108 108 108 107 104 100 95 91 87 83 82 83 81 78 74 75 76 76 74 71 67 66 63 60 56 50 41 29 34 40
159 125 88 122 103 101 98 101 104 102 102 102 109 113 113 112 112 107 102 96 93 92 90 84 82 84 79 74 68 68 66 68 63 58 55 51 48 42 40 36 28 24 21 18
95 162 120 116 107 99 99 106 104 98 102 107 114 114 118 119 114 109 104 100 99 98 93 86 81 80 77 71 63 60 57 55 55 48 44 41 38 33 24 17 14 15 14 4
113 113 118 113 109 104 104 109 110 109 113 115 120 121 123 120 115 112 107 99 97 88 78 71 69 70 66 63 59 55 54 53 55 46 40 34 28 24 25 27 30 35 34 35
132 117 118 108 108 103 102 107 113 117 119 122 123 124 124 121 116 113 106 96 84 79 76 70 66 61 56 55 53 53 50 45 44 34 31 33 34 39 46 48 47 46 43 43
117 133 143 125 122 116 113 114 120 123 123 124 125 126 123 120 115 111 104 88 70 58 62 58 57 50 44 49 54 53 49 41 34 30 34 34 33 39 41 39 37 30 24 16
112 118 121 121 118 125 122 120 120 119 119 122 125 124 119 117 113 112 104 93 92 61 59 52 53 40 30 27 36 34 32 28 19 11 14 11 10 8 7 7 3 359 357 353
115 113 117 120 120 121 122 121 123 122 118 121 121 112 108 101 92 79 72 62 54 45 40 36 28 18 14 14 24 19 9 0 351 337 337 335 335 338 338 335 333 332 334 334
110 113 116 118 116 114 113 114 121 120 116 111 100 96 90 87 81 72 61 43 45 46 26 8 353 351 350 348 350 340 331 329 326 318 310 312 313 314 315 315 317 320 321 323
110 113 112 111 114 113 110 110 109 106 104 99 94 85 78 69 62 57 50 58 67 8 320 330 337 342 343 343 336 327 321 314 309 307 307 308 309 309 309 309 310 312 314 315
114 111 109 109 110 109 109 108 103 98 93 86 72 65 58 45 29 18 13 19 14 355 342 337 336 341 341 334 326 323 319 318 318 317 315 312 306 302 300 300 303 306 311 312
115 113 110 103 94 90 88 86 84 83 71 60 43 31 23 15 4 3 6 7 1 1 355 347 349 352 353 345 336 330 329 328 325 322 321 320 318 314 310 307 305 306 308 309
113 108 102 96 91 84 74 67 64 52 22 3 355 353 351 349 353 355 356 352 343 336 336 344 348 345 339 336 333 328 322 320 323 321 314 309 307 310 309 306 305 305 306 307
110 108 99 91 73 45 2 333 306 301 304 302 310 317 331 335 335 340 342 344 343 339 329 323 328 327 325 323 321 318 318 314 315 316 310 303 300 302 303 301 301 304 306 306
97 92 68 16 344 328 318 302 287 284 287 286 288 293 304 308 304 313 330 333 332 332 325 315 310 311 310 306 304 301 302 306 308 309 305 301 301 300 299 299 300 302 303 303
Wind_Speed_850mb
3 4 3 5 12 14 14 17 14 19 28 32 24 11 18 20 26 30 30 32 35 38 43 46 47 45 44 41 37 33 31 27 23 20 18 18 16 17 15 14 13 15 19 22
7 5 3 11 19 16 16 14 28 30 39 30 37 11 23 25 35 27 25 26 30 34 35 42 42 40 39 38 38 35 31 23 19 18 19 21 23 23 24 25 27 24 24 27
6 4 14 6 8 10 7 13 13 15 30 22 8 9 23 29 37 38 22 23 35 41 38 39 40 36 40 40 32 32 29 25 19 13 15 20 23 25 27 29 30 31 34 36
6 5 2 7 15 9 11 12 27 28 13 6 21 32 31 23 35 43 27 29 35 40 40 47 40 37 37 36 31 22 19 17 14 13 10 13 15 16 17 19 23 25 29 31
3 1 13 2 8 13 13 18 34 30 7 19 34 37 30 25 31 40 34 39 36 38 42 42 38 36 36 30 34 28 17 15 16 16 14 12 12 8 6 5 5 5 7 12
3 4 6 5 19 25 13 6 35 37 10 18 24 7 7 19 31 37 36 32 33 35 36 37 38 33 28 36 35 33 29 25 22 22 20 19 19 18 19 17 16 14 12 11
7 6 9 12 31 21 3 13 38 33 41 29 9 17 38 34 38 37 36 31 28 28 29 29 28 29 35 38 42 39 33 30 29 30 28 29 26 25 24 25 23 23 23 24
6 6 8 27 10 10 16 9 19 23 27 53 55 52 44 38 40 35 35 32 31 30 32 30 29 25 32 34 38 33 30 30 30 28 28 28 26 28 27 25 23 26 26 29
7 3 5 10 7 9 14 11 12 19 27 51 56 46 40 41 40 36 33 32 30 32 33 32 30 32 39 39 34 34 33 36 36 33 32 31 32 32 32 31 32 36 36 38
5 9 14 14 13 15 13 24 24 27 25 39 52 43 40 36 34 31 29 30 28 28 31 33 30 31 36 34 33 34 40 42 42 40 39 39 39 39 38 38 37 36 36 37
8 8 6 28 23 15 17 20 26 30 32 32 37 35 34 35 33 30 30 30 29 32 34 35 33 35 35 35 33 36 40 41 40 40 40 39 38 38 35 37 32 31 32 28
4 9 6 14 16 15 25 28 29 30 31 26 28 32 28 33 32 33 34 34 36 39 38 38 36 37 38 36 33 32 34 35 35 34 34 34 33 32 32 31 27 25 24 22
5 12 29 26 24 22 28 27 27 31 29 33 34 30 32 36 34 34 34 33 34 35 34 31 31 31 32 30 25 25 27 28 26 25 24 24 24 23 23 24 20 16 15 14
17 25 16 6 20 24 26 26 26 30 31 31 32 31 32 35 35 34 34 32 29 28 27 26 24 26 27 24 21 20 20 19 17 17 17 16 17 17 17 14 13 14 15 15
25 13 28 28 24 23 21 21 24 27 27 30 28 31 30 33 33 32 29 26 23 22 24 22 20 22 22 20 17 17 16 14 14 12 11 11 11 10 10 10 11 13 14 14
22 26 24 23 21 18 16 17 22 26 26 28 29 30 29 28 29 27 23 20 15 20 21 18 15 17 16 15 14 13 12 11 10 8 8 7 7 7 8 9 10 11 10 10
16 17 20 21 20 20 20 20 24 27 27 27 29 29 27 26 26 24 22 19 18 16 15 12 13 14 13 12 11 10 9 8 6 6 5 6 6 7 8 9 10 10 10 10
13 16 15 18 22 23 24 23 24 26 27 27 28 28 27 24 22 19 16 15 14 11 10 12 12 12 11 9 9 9 8 7 6 5 6 7 6 7 8 8 9 10 11 12
17 20 21 21 20 23 25 26 27 28 30 28 26 25 22 19 16 12 10 8 4 4 7 8 9 10 9 8 7 7 6 5 4 4 4 4 5 6 6 7 8 10 11 13
20 19 20 24 26 25 30 30 30 32 29 23 21 20 17 15 13 10 10 5 4 4 5 7 9 9 10 9 8 7 5 4 3 4 3 4 5 6 7 9 10 12 13 15
24 24 27 31 37 36 33 30 27 28 28 23 16 16 14 13 11 8 6 4 2 3 3 5 6 7 8 8 7 7 5 5 4 5 6 7 8 9 10 11 13 15 17 18
36 37 38 36 35 35 31 26 22 22 21 17 15 14 12 10 10 7 5 3 1 1 2 5 8 9 9 9 8 7 7 7 8 9 10 11 12 12 13 15 17 18 20 21
35 34 33 30 27 28 26 21 18 16 15 15 15 14 13 12 11 11 10 6 6 5 6 8 10 11 11 11 10 9 9 10 11 13 14 15 16 17 17 18 20 21 22 23
33 29 26 24 21 19 16 16 13 13 12 12 12 14 15 17 17 13 10 7 7 8 10 10 11 12 14 14 12 12 11 12 13 15 16 17 17 17 18 19 20 22 23 24
24 23 21 18 15 13 11 9 6 5 4 6 9 12 14 16 14 11 8 6 7 9 11 11 11 12 15 15 13 13 15 16 19 20 21 20 20 21 22 23 24 26 28 28
17 12 8 6 5 4 4 5 6 7 9 10 12 14 17 18 14 11 9 8 9 11 12 13 14 15 17 17 17 18 20 22 25 27 26 23 24 26 28 28 27 28 31 32
7 6 5 4 6 9 10 11 12 14 15 15 16 18 20 17 11 9 7 9 12 16 17 18 19 20 22 24 24 24 25 26 29 30 28 27 30 30 29 28 29 32 35 36
Wind_Direction_850mb
159 105 171 193 248 252 241 239 242 278 275 282 291 255 130 103 62 44 27 29 52 70 95 109 122 131 140 146 147 150 158 167 174 179 179 172 185 197 207 215 222 231 236 239
318 154 194 268 278 283 260 256 257 273 279 283 279 219 139 117 91 62 42 39 54 72 79 94 103 111 124 133 146 162 163 172 185 191 200 200 203 211 215 224 232 243 259 264
268 283 318 253 157 335 286 292 278 299 304 291 333 192 142 124 104 90 54 58 64 66 65 83 95 103 110 114 123 145 152 150 151 179 196 208 209 213 220 226 233 238 244 249
252 312 234 112 325 114 333 298 317 308 319 106 104 81 76 96 111 106 100 74 68 70 69 73 80 90 101 110 118 118 118 118 135 157 176 183 187 193 204 217 230 233 238 244
322 281 307 25 65 16 357 328 13 357 87 135 128 96 56 71 93 92 84 74 69 73 70 74 76 80 90 100 101 111 115 108 111 123 124 125 130 133 146 173 177 206 228 244
138 271 254 60 334 325 293 242 7 346 283 182 189 166 115 88 90 92 88 78 77 69 60 63 68 77 86 84 89 92 90 100 97 98 97 93 91 91 93 93 93 93 85 66
211 258 283 3 324 321 188 345 340 337 319 225 176 91 117 110 94 90 86 80 80 81 79 69 66 72 73 72 73 76 80 85 87 86 86 81 81 85 83 80 80 75 71 63
170 225 268 3 7 35 321 337 3 12 59 95 99 105 108 97 87 85 80 78 78 83 82 78 74 73 78 74 73 78 80 82 82 85 91 96 96 95 92 88 86 85 80 79
234 303 71 40 81 9 22 49 33 73 92 112 114 108 101 91 86 81 79 79 81 83 83 81 78 79 82 80 81 83 87 88 88 93 96 98 100 97 95 95 93 90 85 82
290 72 49 42 57 50 66 89 99 108 107 118 111 111 102 92 85 82 84 86 90 93 89 83 77 78 79 82 85 87 88 88 86 85 87 85 83 83 85 83 82 83 81 78
300 54 70 54 49 56 80 98 109 110 104 100 107 95 96 93 91 90 91 91 94 91 87 85 84 81 81 82 84 86 86 84 83 81 79 80 81 83 81 81 78 77 74 73
326 351 66 58 60 85 91 89 98 110 110 102 97 99 99 100 104 105 100 97 95 91 86 83 83 83 82 78 75 75 79 79 76 74 74 74 73 75 72 68 61 58 59 57
28 79 111 105 95 96 93 94 100 101 102 103 100 106 108 108 108 107 104 100 95 91 87 83 82 83 81 78 74 75 76 76 74 71 67 66 63 60 56 50 41 29 34 40
159 125 88 122 103 101 98 101 104 102 102 102 109 113 113 112 112 107 102 96 93 92 90 84 82 84 79 74 68 68 66 68 63 58 55 51 48 42 40 36 28 24 21 18
95 162 120 116 107 99 99 106 104 98 102 107 114 114 118 119 114 109 104 100 99 98 93 86 81 80 77 71 63 60 57 55 55 48 44 41 38 33 24 17 14 15 14 4
113 113 118 113 109 104 104 109 110 109 113 115 120 121 123 120 115 112 107 99 97 88 78 71 69 70 66 63 59 55 54 53 55 46 40 34 28 24 25 27 30 35 34 35
132 117 118 108 108 103 102 107 113 117 119 122 123 124 124 121 116 113 106 96 84 79 76 70 66 61 56 55 53 53 50 45 44 34 31 33 34 39 46 48 47 46 43 43
117 133 143 125 122 116 113 114 120 123 123 124 125 126 123 120 115 111 104 88 70 58 62 58 57 50 44 49 54 53 49 41 34 30 34 34 33 39 41 39 37 30 24 16
112 118 121 121 118 125 122 120 120 119 119 122 125 124 119 117 113 112 104 93 92 61 59 52 53 40 30 27 36 34 32 28 19 11 14 11 10 8 7 7 3 359 357 353
115 113 117 120 120 121 122 121 123 122 118 121 121 112 108 101 92 79 72 62 54 45 40 36 28 18 14 14 24 19 9 0 351 337 337 335 335 338 338 335 333 332 334 334
110 113 116 118 116 114 113 114 121 120 116 111 100 96 90 87 81 72 61 43 45 46 26 8 353 351 350 348 350 340 331 329 326 318 310 312 313 314 315 315 317 320 321 323
110 113 112 111 114 113 110 110 109 106 104 99 94 85 78 69 62 57 50 58 67 8 320 330 337 342 343 343 336 327 321 314 309 307 307 308 309 309 309 309 310 312 314 315
114 111 109 109 110 109 109 108 103 98 93 86 72 65 58 45 29 18 13 19 14 355 342 337 336 341 341 334 326 323 319 318 318 317 315 312 306 302 300 300 303 306 311 312
115 113 110 103 94 90 88 86 84 83 71 60 43 31 23 15 4 3 6 7 1 1 355 347 349 352 353 345 336 330 329 328 325 322 321 320 318 314 310 307 305 306 308 309
113 108 102 96 91 84 74 67 64 52 22 3 355 353 351 349 353 355 356 352 343 336 336 344 348 345 339 336 333 328 322 320 323 321 314 309 307 310 309 306 305 305 306 307
110 108 99 91 73 45 2 333 306 301 304 302 310 317 331 335 335 340 342 344 343 339 329 323 328 327 325 323 321 318 318 314 315 316 310 303 300 302 303 301 301 304 306 306
97 92 68 16 344 328 318 302 287 284 287 286 288 293 304 308 304 313 330 333 332 332 325 315 310 311 310 306 304 301 302 306 308 309 305 301 301 300 299 299 300 302 303 303